Location: ??????????
(54.8537°N, 38.8755°E)
Time: 01:14:03
(UTC+00:00)

Transit 4A - Pass Details

Date: 19 September 2024
Orbit: 865 x 977 km, 66.8° (Epoch: 09 October)

Event Time Altitude Azimuth Distance (km) Brightness Sun altitude
Exits shadow 01:59:29 12° 266° (W) 2,429 9.5 -10.1°
Maximum altitude 02:04:36 39° 333° (NNW) 1,351 8.7 -9.4°
Drops below altitude 10° 02:10:19 10° 41° (NE) 2,647 11.2 -8.6°
Sets 02:13:06 0° 50° (NE) 3,611 12.3 -8.2°
